<?xml version="1.0" encoding="UTF-8"?>
<gpx
version="1.1"
creator="Kashmir3D 9.350 - http://www.kashmir3d.com"
xmlns:xsi="http://www.w3.org/2001/XMLSchema-instance"
xmlns="http://www.topografix.com/GPX/1/1"
xmlns:kashmir3d="http://www.kashmir3d.com/namespace/kashmir3d"
xsi:schemaLocation="http://www.topografix.com/GPX/1/1 http://www.topografix.com/GPX/1/1/gpx.xsd
	http://www.kashmir3d.com/namespace/kashmir3d http://www.kashmir3d.com/namespace/kashmir3d.xsd">
<trk>
 <name>OGURAYAMA.KML(小倉山)</name>
 <number>1</number>
 <extensions>
 <kashmir3d:line_color>0000ff</kashmir3d:line_color>
 <kashmir3d:line_size>3</kashmir3d:line_size>
 <kashmir3d:line_style>1</kashmir3d:line_style>
 <kashmir3d:icon>901001</kashmir3d:icon>
 </extensions>
<trkseg>
<trkpt lat="35.010382" lon="135.681568">
 <ele>33.2</ele>
 <time>2020-03-24T17:00:46Z</time>
</trkpt>
<trkpt lat="35.010528" lon="135.681439">
 <ele>33.4</ele>
 <time>2020-03-24T17:00:46Z</time>
</trkpt>
<trkpt lat="35.010511" lon="135.681353">
 <ele>33.5</ele>
 <time>2020-03-24T17:00:46Z</time>
</trkpt>
<trkpt lat="35.010563" lon="135.681257">
 <ele>33.4</ele>
 <time>2020-03-24T17:00:46Z</time>
</trkpt>
<trkpt lat="35.010588" lon="135.681128">
 <ele>33.2</ele>
 <time>2020-03-24T17:00:47Z</time>
</trkpt>
<trkpt lat="35.010734" lon="135.681106">
 <ele>33.2</ele>
 <time>2020-03-24T17:00:47Z</time>
</trkpt>
<trkpt lat="35.010829" lon="135.681096">
 <ele>33.2</ele>
 <time>2020-03-24T17:00:47Z</time>
</trkpt>
<trkpt lat="35.011078" lon="135.680806">
 <ele>34.3</ele>
 <time>2020-03-24T17:00:47Z</time>
</trkpt>
<trkpt lat="35.011241" lon="135.680667">
 <ele>35.1</ele>
 <time>2020-03-24T17:00:47Z</time>
</trkpt>
<trkpt lat="35.011395" lon="135.680559">
 <ele>36.2</ele>
 <time>2020-03-24T17:00:47Z</time>
</trkpt>
<trkpt lat="35.011421" lon="135.680184">
 <ele>37.2</ele>
 <time>2020-03-24T17:00:47Z</time>
</trkpt>
<trkpt lat="35.011421" lon="135.679905">
 <ele>37.5</ele>
 <time>2020-03-24T17:00:47Z</time>
</trkpt>
<trkpt lat="35.011421" lon="135.679561">
 <ele>37.5</ele>
 <time>2020-03-24T17:00:47Z</time>
</trkpt>
<trkpt lat="35.011395" lon="135.679336">
 <ele>37.6</ele>
 <time>2020-03-24T17:00:48Z</time>
</trkpt>
<trkpt lat="35.011284" lon="135.678886">
 <ele>37.7</ele>
 <time>2020-03-24T17:00:48Z</time>
</trkpt>
<trkpt lat="35.011146" lon="135.678413">
 <ele>37.3</ele>
 <time>2020-03-24T17:00:48Z</time>
</trkpt>
<trkpt lat="35.011052" lon="135.678102">
 <ele>37.4</ele>
 <time>2020-03-24T17:00:48Z</time>
</trkpt>
<trkpt lat="35.010940" lon="135.677834">
 <ele>37.2</ele>
 <time>2020-03-24T17:00:48Z</time>
</trkpt>
<trkpt lat="35.011138" lon="135.677544">
 <ele>36.7</ele>
 <time>2020-03-24T17:00:48Z</time>
</trkpt>
<trkpt lat="35.011266" lon="135.677416">
 <ele>36.9</ele>
 <time>2020-03-24T17:00:48Z</time>
</trkpt>
<trkpt lat="35.011327" lon="135.677383">
 <ele>37</ele>
 <time>2020-03-24T17:00:48Z</time>
</trkpt>
<trkpt lat="35.011721" lon="135.677544">
 <ele>36.8</ele>
 <time>2020-03-24T17:00:48Z</time>
</trkpt>
<trkpt lat="35.012090" lon="135.677673">
 <ele>37.1</ele>
 <time>2020-03-24T17:00:48Z</time>
</trkpt>
<trkpt lat="35.012614" lon="135.677748">
 <ele>34</ele>
 <time>2020-03-24T17:00:49Z</time>
</trkpt>
<trkpt lat="35.013524" lon="135.677834">
 <ele>34.4</ele>
 <time>2020-03-24T17:00:49Z</time>
</trkpt>
<trkpt lat="35.013653" lon="135.677834">
 <ele>37.1</ele>
 <time>2020-03-24T17:00:49Z</time>
</trkpt>
<trkpt lat="35.013601" lon="135.677673">
 <ele>36.2</ele>
 <time>2020-03-24T17:00:49Z</time>
</trkpt>
<trkpt lat="35.013541" lon="135.677051">
 <ele>35.6</ele>
 <time>2020-03-24T17:00:49Z</time>
</trkpt>
<trkpt lat="35.013472" lon="135.676407">
 <ele>35.5</ele>
 <time>2020-03-24T17:00:49Z</time>
</trkpt>
<trkpt lat="35.013386" lon="135.675570">
 <ele>36</ele>
 <time>2020-03-24T17:00:49Z</time>
</trkpt>
<trkpt lat="35.013335" lon="135.674959">
 <ele>36.6</ele>
 <time>2020-03-24T17:00:49Z</time>
</trkpt>
<trkpt lat="35.013309" lon="135.674272">
 <ele>37.2</ele>
 <time>2020-03-24T17:00:49Z</time>
</trkpt>
<trkpt lat="35.013292" lon="135.673886">
 <ele>37.2</ele>
 <time>2020-03-24T17:00:50Z</time>
</trkpt>
<trkpt lat="35.013283" lon="135.673328">
 <ele>37.5</ele>
 <time>2020-03-24T17:00:50Z</time>
</trkpt>
<trkpt lat="35.013283" lon="135.673071">
 <ele>36.9</ele>
 <time>2020-03-24T17:00:50Z</time>
</trkpt>
<trkpt lat="35.013309" lon="135.672802">
 <ele>37.3</ele>
 <time>2020-03-24T17:00:50Z</time>
</trkpt>
<trkpt lat="35.013318" lon="135.672706">
 <ele>37.1</ele>
 <time>2020-03-24T17:00:50Z</time>
</trkpt>
<trkpt lat="35.013395" lon="135.672749">
 <ele>39</ele>
 <time>2020-03-24T17:00:50Z</time>
</trkpt>
<trkpt lat="35.013464" lon="135.672952">
 <ele>42.2</ele>
 <time>2020-03-24T17:00:50Z</time>
</trkpt>
<trkpt lat="35.013532" lon="135.672845">
 <ele>44</ele>
 <time>2020-03-24T17:00:50Z</time>
</trkpt>
<trkpt lat="35.013541" lon="135.672663">
 <ele>45.2</ele>
 <time>2020-03-24T17:00:50Z</time>
</trkpt>
<trkpt lat="35.013558" lon="135.672362">
 <ele>48.9</ele>
 <time>2020-03-24T17:00:50Z</time>
</trkpt>
<trkpt lat="35.013592" lon="135.672159">
 <ele>52.6</ele>
 <time>2020-03-24T17:00:51Z</time>
</trkpt>
<trkpt lat="35.013661" lon="135.671923">
 <ele>54.7</ele>
 <time>2020-03-24T17:00:51Z</time>
</trkpt>
<trkpt lat="35.013876" lon="135.671493">
 <ele>57.1</ele>
 <time>2020-03-24T17:00:51Z</time>
</trkpt>
<trkpt lat="35.014090" lon="135.671300">
 <ele>55.6</ele>
 <time>2020-03-24T17:00:51Z</time>
</trkpt>
<trkpt lat="35.014356" lon="135.671214">
 <ele>56</ele>
 <time>2020-03-24T17:00:51Z</time>
</trkpt>
<trkpt lat="35.014597" lon="135.671214">
 <ele>57.4</ele>
 <time>2020-03-24T17:00:51Z</time>
</trkpt>
<trkpt lat="35.014657" lon="135.671214">
 <ele>58.3</ele>
 <time>2020-03-24T17:00:51Z</time>
</trkpt>
<trkpt lat="35.014734" lon="135.671000">
 <ele>61.7</ele>
 <time>2020-03-24T17:00:51Z</time>
</trkpt>
<trkpt lat="35.014777" lon="135.670764">
 <ele>67.2</ele>
 <time>2020-03-24T17:00:51Z</time>
</trkpt>
<trkpt lat="35.014777" lon="135.670560">
 <ele>70.7</ele>
 <time>2020-03-24T17:00:51Z</time>
</trkpt>
<trkpt lat="35.014794" lon="135.670388">
 <ele>75.1</ele>
 <time>2020-03-24T17:00:52Z</time>
</trkpt>
<trkpt lat="35.014863" lon="135.670281">
 <ele>80.1</ele>
 <time>2020-03-24T17:00:52Z</time>
</trkpt>
<trkpt lat="35.015009" lon="135.670238">
 <ele>85.5</ele>
 <time>2020-03-24T17:00:52Z</time>
</trkpt>
<trkpt lat="35.015103" lon="135.670227">
 <ele>87</ele>
 <time>2020-03-24T17:00:52Z</time>
</trkpt>
<trkpt lat="35.015275" lon="135.670013">
 <ele>89.3</ele>
 <time>2020-03-24T17:00:52Z</time>
</trkpt>
<trkpt lat="35.015403" lon="135.669948">
 <ele>90.4</ele>
 <time>2020-03-24T17:00:52Z</time>
</trkpt>
<trkpt lat="35.015635" lon="135.669830">
 <ele>90.9</ele>
 <time>2020-03-24T17:00:52Z</time>
</trkpt>
<trkpt lat="35.015730" lon="135.669755">
 <ele>91</ele>
 <time>2020-03-24T17:00:52Z</time>
</trkpt>
<trkpt lat="35.015790" lon="135.669637">
 <ele>90.9</ele>
 <time>2020-03-24T17:00:52Z</time>
</trkpt>
<trkpt lat="35.015987" lon="135.669519">
 <ele>90.3</ele>
 <time>2020-03-24T17:00:52Z</time>
</trkpt>
<trkpt lat="35.016107" lon="135.669412">
 <ele>91.1</ele>
 <time>2020-03-24T17:00:53Z</time>
</trkpt>
<trkpt lat="35.016193" lon="135.669294">
 <ele>92.1</ele>
 <time>2020-03-24T17:00:53Z</time>
</trkpt>
<trkpt lat="35.016279" lon="135.669079">
 <ele>92.1</ele>
 <time>2020-03-24T17:00:53Z</time>
</trkpt>
<trkpt lat="35.016365" lon="135.668972">
 <ele>92.1</ele>
 <time>2020-03-24T17:00:53Z</time>
</trkpt>
<trkpt lat="35.016494" lon="135.668961">
 <ele>92.4</ele>
 <time>2020-03-24T17:00:53Z</time>
</trkpt>
<trkpt lat="35.016605" lon="135.668961">
 <ele>93.8</ele>
 <time>2020-03-24T17:00:53Z</time>
</trkpt>
<trkpt lat="35.016734" lon="135.668865">
 <ele>95</ele>
 <time>2020-03-24T17:00:53Z</time>
</trkpt>
<trkpt lat="35.016914" lon="135.668715">
 <ele>98</ele>
 <time>2020-03-24T17:00:53Z</time>
</trkpt>
<trkpt lat="35.017009" lon="135.668639">
 <ele>99.8</ele>
 <time>2020-03-24T17:00:53Z</time>
</trkpt>
<trkpt lat="35.017069" lon="135.668511">
 <ele>103.4</ele>
 <time>2020-03-24T17:00:53Z</time>
</trkpt>
<trkpt lat="35.017172" lon="135.668393">
 <ele>106.8</ele>
 <time>2020-03-24T17:00:54Z</time>
</trkpt>
<trkpt lat="35.017249" lon="135.668318">
 <ele>108.7</ele>
 <time>2020-03-24T17:00:54Z</time>
</trkpt>
<trkpt lat="35.017343" lon="135.668275">
 <ele>110.6</ele>
 <time>2020-03-24T17:00:54Z</time>
</trkpt>
<trkpt lat="35.017438" lon="135.668232">
 <ele>113.1</ele>
 <time>2020-03-24T17:00:54Z</time>
</trkpt>
<trkpt lat="35.017523" lon="135.668189">
 <ele>115.2</ele>
 <time>2020-03-24T17:00:54Z</time>
</trkpt>
<trkpt lat="35.017592" lon="135.668210">
 <ele>116.1</ele>
 <time>2020-03-24T17:00:54Z</time>
</trkpt>
<trkpt lat="35.017644" lon="135.668232">
 <ele>116.8</ele>
 <time>2020-03-24T17:00:54Z</time>
</trkpt>
<trkpt lat="35.017712" lon="135.668157">
 <ele>118.9</ele>
 <time>2020-03-24T17:00:54Z</time>
</trkpt>
<trkpt lat="35.017738" lon="135.668082">
 <ele>122.1</ele>
 <time>2020-03-24T17:00:54Z</time>
</trkpt>
<trkpt lat="35.017807" lon="135.668017">
 <ele>125.5</ele>
 <time>2020-03-24T17:00:55Z</time>
</trkpt>
<trkpt lat="35.017910" lon="135.667942">
 <ele>128.1</ele>
 <time>2020-03-24T17:00:55Z</time>
</trkpt>
<trkpt lat="35.017996" lon="135.667878">
 <ele>131.2</ele>
 <time>2020-03-24T17:00:55Z</time>
</trkpt>
<trkpt lat="35.018064" lon="135.667803">
 <ele>134.6</ele>
 <time>2020-03-24T17:00:55Z</time>
</trkpt>
<trkpt lat="35.018047" lon="135.667738">
 <ele>135.7</ele>
 <time>2020-03-24T17:00:55Z</time>
</trkpt>
<trkpt lat="35.018056" lon="135.667663">
 <ele>137.7</ele>
 <time>2020-03-24T17:00:55Z</time>
</trkpt>
<trkpt lat="35.018141" lon="135.667545">
 <ele>139.9</ele>
 <time>2020-03-24T17:00:55Z</time>
</trkpt>
<trkpt lat="35.018193" lon="135.667416">
 <ele>143.4</ele>
 <time>2020-03-24T17:00:55Z</time>
</trkpt>
<trkpt lat="35.018253" lon="135.667363">
 <ele>145.7</ele>
 <time>2020-03-24T17:00:55Z</time>
</trkpt>
<trkpt lat="35.018322" lon="135.667320">
 <ele>148.7</ele>
 <time>2020-03-24T17:00:55Z</time>
</trkpt>
<trkpt lat="35.018408" lon="135.667213">
 <ele>152</ele>
 <time>2020-03-24T17:00:56Z</time>
</trkpt>
<trkpt lat="35.018459" lon="135.667062">
 <ele>154.2</ele>
 <time>2020-03-24T17:00:56Z</time>
</trkpt>
<trkpt lat="35.018502" lon="135.666955">
 <ele>155.2</ele>
 <time>2020-03-24T17:00:56Z</time>
</trkpt>
<trkpt lat="35.018528" lon="135.666848">
 <ele>155.4</ele>
 <time>2020-03-24T17:00:56Z</time>
</trkpt>
<trkpt lat="35.018528" lon="135.666783">
 <ele>154.8</ele>
 <time>2020-03-24T17:00:56Z</time>
</trkpt>
<trkpt lat="35.018528" lon="135.666719">
 <ele>153.9</ele>
 <time>2020-03-24T17:00:56Z</time>
</trkpt>
<trkpt lat="35.018596" lon="135.666590">
 <ele>156</ele>
 <time>2020-03-24T17:00:56Z</time>
</trkpt>
<trkpt lat="35.018665" lon="135.666515">
 <ele>158.3</ele>
 <time>2020-03-24T17:00:56Z</time>
</trkpt>
<trkpt lat="35.018708" lon="135.666419">
 <ele>160.8</ele>
 <time>2020-03-24T17:00:56Z</time>
</trkpt>
<trkpt lat="35.018785" lon="135.666376">
 <ele>164.4</ele>
 <time>2020-03-24T17:00:56Z</time>
</trkpt>
<trkpt lat="35.018854" lon="135.666376">
 <ele>167.1</ele>
 <time>2020-03-24T17:00:57Z</time>
</trkpt>
<trkpt lat="35.018931" lon="135.666354">
 <ele>170.3</ele>
 <time>2020-03-24T17:00:57Z</time>
</trkpt>
<trkpt lat="35.019017" lon="135.666322">
 <ele>173.5</ele>
 <time>2020-03-24T17:00:57Z</time>
</trkpt>
<trkpt lat="35.019111" lon="135.666226">
 <ele>178.5</ele>
 <time>2020-03-24T17:00:57Z</time>
</trkpt>
<trkpt lat="35.019214" lon="135.666193">
 <ele>181.7</ele>
 <time>2020-03-24T17:00:57Z</time>
</trkpt>
<trkpt lat="35.019274" lon="135.666140">
 <ele>183</ele>
 <time>2020-03-24T17:00:57Z</time>
</trkpt>
<trkpt lat="35.019317" lon="135.666022">
 <ele>185.1</ele>
 <time>2020-03-24T17:00:57Z</time>
</trkpt>
<trkpt lat="35.019377" lon="135.665947">
 <ele>186.5</ele>
 <time>2020-03-24T17:00:57Z</time>
</trkpt>
<trkpt lat="35.019455" lon="135.665882">
 <ele>186</ele>
 <time>2020-03-24T17:00:57Z</time>
</trkpt>
<trkpt lat="35.019489" lon="135.665732">
 <ele>189.9</ele>
 <time>2020-03-24T17:00:58Z</time>
</trkpt>
<trkpt lat="35.019472" lon="135.665614">
 <ele>193.3</ele>
 <time>2020-03-24T17:00:58Z</time>
</trkpt>
<trkpt lat="35.019523" lon="135.665539">
 <ele>194.3</ele>
 <time>2020-03-24T17:00:58Z</time>
</trkpt>
<trkpt lat="35.019558" lon="135.665464">
 <ele>197.1</ele>
 <time>2020-03-24T17:00:58Z</time>
</trkpt>
<trkpt lat="35.019618" lon="135.665410">
 <ele>198.8</ele>
 <time>2020-03-24T17:00:58Z</time>
</trkpt>
<trkpt lat="35.019686" lon="135.665378">
 <ele>201.8</ele>
 <time>2020-03-24T17:00:58Z</time>
</trkpt>
<trkpt lat="35.019832" lon="135.665335">
 <ele>206.3</ele>
 <time>2020-03-24T17:00:58Z</time>
</trkpt>
<trkpt lat="35.019927" lon="135.665303">
 <ele>209.7</ele>
 <time>2020-03-24T17:00:58Z</time>
</trkpt>
<trkpt lat="35.020030" lon="135.665238">
 <ele>212.4</ele>
 <time>2020-03-24T17:00:58Z</time>
</trkpt>
<trkpt lat="35.020167" lon="135.665099">
 <ele>218.4</ele>
 <time>2020-03-24T17:00:58Z</time>
</trkpt>
<trkpt lat="35.020244" lon="135.665013">
 <ele>221.4</ele>
 <time>2020-03-24T17:00:59Z</time>
</trkpt>
<trkpt lat="35.020330" lon="135.664949">
 <ele>223.1</ele>
 <time>2020-03-24T17:00:59Z</time>
</trkpt>
<trkpt lat="35.020244" lon="135.665013">
 <ele>221.4</ele>
 <time>2020-03-24T17:00:59Z</time>
</trkpt>
<trkpt lat="35.020167" lon="135.665099">
 <ele>218.4</ele>
 <time>2020-03-24T17:00:59Z</time>
</trkpt>
<trkpt lat="35.020030" lon="135.665238">
 <ele>212.4</ele>
 <time>2020-03-24T17:00:59Z</time>
</trkpt>
<trkpt lat="35.019927" lon="135.665303">
 <ele>209.7</ele>
 <time>2020-03-24T17:00:59Z</time>
</trkpt>
<trkpt lat="35.019832" lon="135.665335">
 <ele>206.3</ele>
 <time>2020-03-24T17:00:59Z</time>
</trkpt>
<trkpt lat="35.019686" lon="135.665378">
 <ele>201.8</ele>
 <time>2020-03-24T17:00:59Z</time>
</trkpt>
<trkpt lat="35.019618" lon="135.665410">
 <ele>198.8</ele>
 <time>2020-03-24T17:00:59Z</time>
</trkpt>
<trkpt lat="35.019558" lon="135.665464">
 <ele>197.1</ele>
 <time>2020-03-24T17:00:59Z</time>
</trkpt>
<trkpt lat="35.019523" lon="135.665539">
 <ele>194.3</ele>
 <time>2020-03-24T17:01:00Z</time>
</trkpt>
<trkpt lat="35.019472" lon="135.665614">
 <ele>193.3</ele>
 <time>2020-03-24T17:01:00Z</time>
</trkpt>
<trkpt lat="35.019489" lon="135.665732">
 <ele>189.9</ele>
 <time>2020-03-24T17:01:00Z</time>
</trkpt>
<trkpt lat="35.019455" lon="135.665882">
 <ele>186</ele>
 <time>2020-03-24T17:01:00Z</time>
</trkpt>
<trkpt lat="35.019377" lon="135.665947">
 <ele>186.5</ele>
 <time>2020-03-24T17:01:00Z</time>
</trkpt>
<trkpt lat="35.019317" lon="135.666022">
 <ele>185.1</ele>
 <time>2020-03-24T17:01:00Z</time>
</trkpt>
<trkpt lat="35.019274" lon="135.666140">
 <ele>183</ele>
 <time>2020-03-24T17:01:00Z</time>
</trkpt>
<trkpt lat="35.019214" lon="135.666193">
 <ele>181.7</ele>
 <time>2020-03-24T17:01:00Z</time>
</trkpt>
<trkpt lat="35.019111" lon="135.666226">
 <ele>178.5</ele>
 <time>2020-03-24T17:01:00Z</time>
</trkpt>
<trkpt lat="35.019017" lon="135.666322">
 <ele>173.5</ele>
 <time>2020-03-24T17:01:01Z</time>
</trkpt>
<trkpt lat="35.018931" lon="135.666354">
 <ele>170.3</ele>
 <time>2020-03-24T17:01:01Z</time>
</trkpt>
<trkpt lat="35.018854" lon="135.666376">
 <ele>167.1</ele>
 <time>2020-03-24T17:01:01Z</time>
</trkpt>
<trkpt lat="35.018785" lon="135.666376">
 <ele>164.4</ele>
 <time>2020-03-24T17:01:01Z</time>
</trkpt>
<trkpt lat="35.018708" lon="135.666419">
 <ele>160.8</ele>
 <time>2020-03-24T17:01:01Z</time>
</trkpt>
<trkpt lat="35.018665" lon="135.666515">
 <ele>158.3</ele>
 <time>2020-03-24T17:01:01Z</time>
</trkpt>
<trkpt lat="35.018596" lon="135.666590">
 <ele>156</ele>
 <time>2020-03-24T17:01:01Z</time>
</trkpt>
<trkpt lat="35.018528" lon="135.666719">
 <ele>153.9</ele>
 <time>2020-03-24T17:01:01Z</time>
</trkpt>
<trkpt lat="35.018528" lon="135.666783">
 <ele>154.8</ele>
 <time>2020-03-24T17:01:01Z</time>
</trkpt>
<trkpt lat="35.018528" lon="135.666848">
 <ele>155.4</ele>
 <time>2020-03-24T17:01:01Z</time>
</trkpt>
<trkpt lat="35.018502" lon="135.666955">
 <ele>155.2</ele>
 <time>2020-03-24T17:01:02Z</time>
</trkpt>
<trkpt lat="35.018459" lon="135.667062">
 <ele>154.2</ele>
 <time>2020-03-24T17:01:02Z</time>
</trkpt>
<trkpt lat="35.018408" lon="135.667213">
 <ele>152</ele>
 <time>2020-03-24T17:01:02Z</time>
</trkpt>
<trkpt lat="35.018322" lon="135.667320">
 <ele>148.7</ele>
 <time>2020-03-24T17:01:02Z</time>
</trkpt>
<trkpt lat="35.018253" lon="135.667363">
 <ele>145.7</ele>
 <time>2020-03-24T17:01:02Z</time>
</trkpt>
<trkpt lat="35.018193" lon="135.667416">
 <ele>143.4</ele>
 <time>2020-03-24T17:01:02Z</time>
</trkpt>
<trkpt lat="35.018141" lon="135.667545">
 <ele>139.9</ele>
 <time>2020-03-24T17:01:02Z</time>
</trkpt>
<trkpt lat="35.018056" lon="135.667663">
 <ele>137.7</ele>
 <time>2020-03-24T17:01:02Z</time>
</trkpt>
<trkpt lat="35.018047" lon="135.667738">
 <ele>135.7</ele>
 <time>2020-03-24T17:01:02Z</time>
</trkpt>
<trkpt lat="35.018064" lon="135.667803">
 <ele>134.6</ele>
 <time>2020-03-24T17:01:02Z</time>
</trkpt>
<trkpt lat="35.017996" lon="135.667878">
 <ele>131.2</ele>
 <time>2020-03-24T17:01:03Z</time>
</trkpt>
<trkpt lat="35.017910" lon="135.667942">
 <ele>128.1</ele>
 <time>2020-03-24T17:01:03Z</time>
</trkpt>
<trkpt lat="35.017807" lon="135.668017">
 <ele>125.5</ele>
 <time>2020-03-24T17:01:03Z</time>
</trkpt>
<trkpt lat="35.017738" lon="135.668082">
 <ele>122.1</ele>
 <time>2020-03-24T17:01:03Z</time>
</trkpt>
<trkpt lat="35.017712" lon="135.668157">
 <ele>118.9</ele>
 <time>2020-03-24T17:01:03Z</time>
</trkpt>
<trkpt lat="35.017644" lon="135.668232">
 <ele>116.8</ele>
 <time>2020-03-24T17:01:03Z</time>
</trkpt>
<trkpt lat="35.017592" lon="135.668210">
 <ele>116.1</ele>
 <time>2020-03-24T17:01:03Z</time>
</trkpt>
<trkpt lat="35.017523" lon="135.668189">
 <ele>115.2</ele>
 <time>2020-03-24T17:01:03Z</time>
</trkpt>
<trkpt lat="35.017438" lon="135.668232">
 <ele>113.1</ele>
 <time>2020-03-24T17:01:03Z</time>
</trkpt>
<trkpt lat="35.017343" lon="135.668275">
 <ele>110.6</ele>
 <time>2020-03-24T17:01:04Z</time>
</trkpt>
<trkpt lat="35.017249" lon="135.668318">
 <ele>108.7</ele>
 <time>2020-03-24T17:01:04Z</time>
</trkpt>
<trkpt lat="35.017172" lon="135.668393">
 <ele>106.8</ele>
 <time>2020-03-24T17:01:04Z</time>
</trkpt>
<trkpt lat="35.017069" lon="135.668511">
 <ele>103.4</ele>
 <time>2020-03-24T17:01:04Z</time>
</trkpt>
<trkpt lat="35.017009" lon="135.668639">
 <ele>99.8</ele>
 <time>2020-03-24T17:01:04Z</time>
</trkpt>
<trkpt lat="35.016914" lon="135.668715">
 <ele>98</ele>
 <time>2020-03-24T17:01:04Z</time>
</trkpt>
<trkpt lat="35.016734" lon="135.668865">
 <ele>95</ele>
 <time>2020-03-24T17:01:04Z</time>
</trkpt>
<trkpt lat="35.016605" lon="135.668961">
 <ele>93.8</ele>
 <time>2020-03-24T17:01:04Z</time>
</trkpt>
<trkpt lat="35.016494" lon="135.668961">
 <ele>92.4</ele>
 <time>2020-03-24T17:01:04Z</time>
</trkpt>
<trkpt lat="35.016365" lon="135.668972">
 <ele>92.1</ele>
 <time>2020-03-24T17:01:04Z</time>
</trkpt>
<trkpt lat="35.016279" lon="135.669079">
 <ele>92.1</ele>
 <time>2020-03-24T17:01:05Z</time>
</trkpt>
<trkpt lat="35.016193" lon="135.669294">
 <ele>92.1</ele>
 <time>2020-03-24T17:01:05Z</time>
</trkpt>
<trkpt lat="35.016107" lon="135.669412">
 <ele>91.1</ele>
 <time>2020-03-24T17:01:05Z</time>
</trkpt>
<trkpt lat="35.015987" lon="135.669519">
 <ele>90.3</ele>
 <time>2020-03-24T17:01:05Z</time>
</trkpt>
<trkpt lat="35.015790" lon="135.669637">
 <ele>90.9</ele>
 <time>2020-03-24T17:01:05Z</time>
</trkpt>
<trkpt lat="35.015730" lon="135.669755">
 <ele>91</ele>
 <time>2020-03-24T17:01:05Z</time>
</trkpt>
<trkpt lat="35.015635" lon="135.669830">
 <ele>90.9</ele>
 <time>2020-03-24T17:01:05Z</time>
</trkpt>
<trkpt lat="35.015403" lon="135.669948">
 <ele>90.4</ele>
 <time>2020-03-24T17:01:05Z</time>
</trkpt>
<trkpt lat="35.015275" lon="135.670013">
 <ele>89.3</ele>
 <time>2020-03-24T17:01:05Z</time>
</trkpt>
<trkpt lat="35.015103" lon="135.670227">
 <ele>87</ele>
 <time>2020-03-24T17:01:05Z</time>
</trkpt>
<trkpt lat="35.015009" lon="135.670238">
 <ele>85.5</ele>
 <time>2020-03-24T17:01:06Z</time>
</trkpt>
<trkpt lat="35.014863" lon="135.670281">
 <ele>80.1</ele>
 <time>2020-03-24T17:01:06Z</time>
</trkpt>
<trkpt lat="35.014794" lon="135.670388">
 <ele>75.1</ele>
 <time>2020-03-24T17:01:06Z</time>
</trkpt>
<trkpt lat="35.014777" lon="135.670560">
 <ele>70.7</ele>
 <time>2020-03-24T17:01:06Z</time>
</trkpt>
<trkpt lat="35.014777" lon="135.670764">
 <ele>67.2</ele>
 <time>2020-03-24T17:01:06Z</time>
</trkpt>
<trkpt lat="35.014734" lon="135.671000">
 <ele>61.7</ele>
 <time>2020-03-24T17:01:06Z</time>
</trkpt>
<trkpt lat="35.014657" lon="135.671214">
 <ele>58.3</ele>
 <time>2020-03-24T17:01:06Z</time>
</trkpt>
<trkpt lat="35.014597" lon="135.671214">
 <ele>57.4</ele>
 <time>2020-03-24T17:01:06Z</time>
</trkpt>
<trkpt lat="35.014356" lon="135.671214">
 <ele>56</ele>
 <time>2020-03-24T17:01:06Z</time>
</trkpt>
<trkpt lat="35.014090" lon="135.671300">
 <ele>55.6</ele>
 <time>2020-03-24T17:01:06Z</time>
</trkpt>
<trkpt lat="35.013876" lon="135.671493">
 <ele>57.1</ele>
 <time>2020-03-24T17:01:07Z</time>
</trkpt>
<trkpt lat="35.013661" lon="135.671923">
 <ele>54.7</ele>
 <time>2020-03-24T17:01:07Z</time>
</trkpt>
<trkpt lat="35.013592" lon="135.672159">
 <ele>52.6</ele>
 <time>2020-03-24T17:01:07Z</time>
</trkpt>
<trkpt lat="35.013558" lon="135.672362">
 <ele>48.9</ele>
 <time>2020-03-24T17:01:07Z</time>
</trkpt>
<trkpt lat="35.013541" lon="135.672663">
 <ele>45.2</ele>
 <time>2020-03-24T17:01:07Z</time>
</trkpt>
<trkpt lat="35.013532" lon="135.672845">
 <ele>44</ele>
 <time>2020-03-24T17:01:07Z</time>
</trkpt>
<trkpt lat="35.013464" lon="135.672952">
 <ele>42.2</ele>
 <time>2020-03-24T17:01:07Z</time>
</trkpt>
<trkpt lat="35.013395" lon="135.672749">
 <ele>39</ele>
 <time>2020-03-24T17:01:07Z</time>
</trkpt>
<trkpt lat="35.013318" lon="135.672706">
 <ele>37.1</ele>
 <time>2020-03-24T17:01:07Z</time>
</trkpt>
<trkpt lat="35.013309" lon="135.672802">
 <ele>37.3</ele>
 <time>2020-03-24T17:01:07Z</time>
</trkpt>
<trkpt lat="35.013283" lon="135.673071">
 <ele>36.9</ele>
 <time>2020-03-24T17:01:08Z</time>
</trkpt>
<trkpt lat="35.013283" lon="135.673328">
 <ele>37.5</ele>
 <time>2020-03-24T17:01:08Z</time>
</trkpt>
<trkpt lat="35.013292" lon="135.673886">
 <ele>37.2</ele>
 <time>2020-03-24T17:01:08Z</time>
</trkpt>
<trkpt lat="35.013309" lon="135.674272">
 <ele>37.2</ele>
 <time>2020-03-24T17:01:08Z</time>
</trkpt>
<trkpt lat="35.013335" lon="135.674959">
 <ele>36.6</ele>
 <time>2020-03-24T17:01:08Z</time>
</trkpt>
<trkpt lat="35.013386" lon="135.675570">
 <ele>36</ele>
 <time>2020-03-24T17:01:08Z</time>
</trkpt>
<trkpt lat="35.013472" lon="135.676407">
 <ele>35.5</ele>
 <time>2020-03-24T17:01:08Z</time>
</trkpt>
<trkpt lat="35.013541" lon="135.677051">
 <ele>35.6</ele>
 <time>2020-03-24T17:01:08Z</time>
</trkpt>
<trkpt lat="35.013601" lon="135.677673">
 <ele>36.2</ele>
 <time>2020-03-24T17:01:08Z</time>
</trkpt>
<trkpt lat="35.013653" lon="135.677834">
 <ele>37.1</ele>
 <time>2020-03-24T17:01:09Z</time>
</trkpt>
<trkpt lat="35.013524" lon="135.677834">
 <ele>34.4</ele>
 <time>2020-03-24T17:01:09Z</time>
</trkpt>
<trkpt lat="35.012614" lon="135.677748">
 <ele>34</ele>
 <time>2020-03-24T17:01:09Z</time>
</trkpt>
<trkpt lat="35.012090" lon="135.677673">
 <ele>37.1</ele>
 <time>2020-03-24T17:01:09Z</time>
</trkpt>
<trkpt lat="35.011721" lon="135.677544">
 <ele>36.8</ele>
 <time>2020-03-24T17:01:09Z</time>
</trkpt>
<trkpt lat="35.011327" lon="135.677383">
 <ele>37</ele>
 <time>2020-03-24T17:01:09Z</time>
</trkpt>
<trkpt lat="35.011266" lon="135.677416">
 <ele>36.9</ele>
 <time>2020-03-24T17:01:09Z</time>
</trkpt>
<trkpt lat="35.011138" lon="135.677544">
 <ele>36.7</ele>
 <time>2020-03-24T17:01:09Z</time>
</trkpt>
<trkpt lat="35.010940" lon="135.677834">
 <ele>37.2</ele>
 <time>2020-03-24T17:01:09Z</time>
</trkpt>
<trkpt lat="35.011052" lon="135.678102">
 <ele>37.4</ele>
 <time>2020-03-24T17:01:09Z</time>
</trkpt>
<trkpt lat="35.011146" lon="135.678413">
 <ele>37.3</ele>
 <time>2020-03-24T17:01:10Z</time>
</trkpt>
<trkpt lat="35.011284" lon="135.678886">
 <ele>37.7</ele>
 <time>2020-03-24T17:01:10Z</time>
</trkpt>
<trkpt lat="35.011395" lon="135.679336">
 <ele>37.6</ele>
 <time>2020-03-24T17:01:10Z</time>
</trkpt>
<trkpt lat="35.011421" lon="135.679561">
 <ele>37.5</ele>
 <time>2020-03-24T17:01:10Z</time>
</trkpt>
<trkpt lat="35.011421" lon="135.679905">
 <ele>37.5</ele>
 <time>2020-03-24T17:01:10Z</time>
</trkpt>
<trkpt lat="35.011421" lon="135.680184">
 <ele>37.2</ele>
 <time>2020-03-24T17:01:10Z</time>
</trkpt>
<trkpt lat="35.011395" lon="135.680559">
 <ele>36.2</ele>
 <time>2020-03-24T17:01:10Z</time>
</trkpt>
<trkpt lat="35.011241" lon="135.680667">
 <ele>35.1</ele>
 <time>2020-03-24T17:01:10Z</time>
</trkpt>
<trkpt lat="35.011078" lon="135.680806">
 <ele>34.3</ele>
 <time>2020-03-24T17:01:10Z</time>
</trkpt>
<trkpt lat="35.010829" lon="135.681096">
 <ele>33.2</ele>
 <time>2020-03-24T17:01:11Z</time>
</trkpt>
<trkpt lat="35.010734" lon="135.681106">
 <ele>33.2</ele>
 <time>2020-03-24T17:01:11Z</time>
</trkpt>
<trkpt lat="35.010588" lon="135.681128">
 <ele>33.2</ele>
 <time>2020-03-24T17:01:11Z</time>
</trkpt>
<trkpt lat="35.010563" lon="135.681257">
 <ele>33.4</ele>
 <time>2020-03-24T17:01:11Z</time>
</trkpt>
<trkpt lat="35.010511" lon="135.681353">
 <ele>33.5</ele>
 <time>2020-03-24T17:01:11Z</time>
</trkpt>
<trkpt lat="35.010528" lon="135.681439">
 <ele>33.4</ele>
 <time>2020-03-24T17:01:11Z</time>
</trkpt>
<trkpt lat="35.010382" lon="135.681568">
 <ele>33.2</ele>
 <time>2020-03-24T17:01:11Z</time>
</trkpt>
</trkseg>
</trk>
</gpx>

